Welcome to the New NWS' Forecast!
Most changes are behind the scenes, but click here for differences you might notice.

Regional Weather Roundup (RWR)

Issued by Gray - Portland, ME (GYX)

                            
000
ASUS41 KGYX 222305
RWRGYX
WEATHER ROUNDUP FOR MAINE AND NEW HAMPSHIRE
NATIONAL WEATHER SERVICE GRAY ME
700 PM EDT MON OCT 22 2018

MEZ002-005-006-010-012-015-018-020-021-024-026-027-029-230000-
MAINE
  
CITY           SKY/WX    TMP DP  RH WIND       PRES   REMARKS
PORTLAND       FAIR      43  24  47 SW3       30.14R                  
SANFORD        FAIR      34  28  79 NE3       30.15R                  
BAR HARBOR     FAIR      35  22  58 NW3       30.13R                  
WISCASSET      FAIR      33  27  78 CALM      30.15R                  
ROCKLAND       FAIR      33  24  69 CALM      30.13R                  
FRYEBURG       MOCLDY    39  26  59 SW5       30.12R                  
LEWISTONAUBURN MOCLDY    40  23  50 CALM      30.13R                  
AUGUSTA        FAIR      40  20  44 CALM      30.12R                  
WATERVILLE     FAIR      34  21  59 CALM      30.09R                  
BANGOR         FAIR      34  21  59 NW5       30.12R                  
GREENVILLE       N/A     30  17  58 CALM      30.04R                  
MILLINOCKET    FAIR      34  17  50 W3        30.11R                  
HOULTON        FAIR      32  16  51 CALM      30.06R                  
PRESQUE ISLE   CLOUDY    35  17  47 W12       30.06                   
FRENCHVILLE    CLOUDY    33  16  49 NW8       30.02R                  
CARIBOU        CLOUDY    35  16  45 W6        30.03R                  
$$

NHZ002-005-008-009-011-012-014-230000-
NEW HAMPSHIRE
  
CITY           SKY/WX    TMP DP  RH WIND       PRES   REMARKS
PORTSMOUTH     MOCLDY    44  27  52 CALM      30.13R                  
ROCHESTER      CLOUDY    42  31  64 CALM      30.13R                  
NASHUA         MOCLDY    45  32  60 CALM      30.15R                  
MANCHESTER     CLOUDY    47  30  51 S6        30.13R                  
CONCORD        CLOUDY    42  31  64 CALM      30.14R                  
LACONIA        CLOUDY    37  30  75 CALM      30.13                   
PLYMOUTH       MOCLDY    37  30  77 CALM      30.12R                  
BERLIN         CLOUDY    31  23  72 CALM      30.10R                  
WHITEFIELD     FAIR      33  26  75 CALM      30.10R                  
JAFFREY        CLOUDY    43  31  62 S7        30.13R                  
KEENE          CLOUDY    43  33  68 CALM      30.14R                  
LEBANON        CLOUDY    42  32  67 CALM      30.12R                  
MT WASHINGTON  SNOWSHWR  14  14 100 W37         N/A  VSB 0   WCI  -9  
$$

VTZ005-007-008-230000-
VERMONT
  
CITY           SKY/WX    TMP DP  RH WIND       PRES   REMARKS
ST JOHNSBURY     N/A     38  27  64 MISG      30.10R                  
MONTPELIER     CLOUDY    38  30  73 S3        30.13R                  
BURLINGTON     CLOUDY    43  30  60 S5        30.10R                  
$$

MAZ007-012-024-CTZ003-RIZ002-NYZ038-NYZ072-230000-
SOUTHERN NEW ENGLAND AND NY
  
CITY           SKY/WX    TMP DP  RH WIND       PRES   REMARKS
BOSTON         FAIR      48  30  49 SW9       30.17R                  
WORCESTER      MOCLDY    39  31  72 SW6       30.15R                  
NANTUCKET      CLOUDY    50  31  48 W12       30.19R                  
PROVIDENCE     MOCLDY    45  30  55 SW5       30.19R                  
HARTFORD       MOCLDY    46  33  60 SW7       30.16S                  
ALBANY         MOCLDY    46  33  60 S7        30.13R                  
NEW YORK CITY  MOCLDY    51  36  56 S8        30.17S                  
$$

ANZ081-ANZ082-ANZ150-NHZ014-MEZ023>029-230000-
COASTAL MARINE OBSERVATIONS
  
STATION/POSITION TIME  TEMP    WIND        PRES    WAVE
                       AIR SEA DIR/SP/G            HT/PER
                 (UTC) (F)     (DEG/KT/KT) (MB)    (FT/S)
MOUNT DESERT ROC 2300   44     260/ 12/ 13 1020.5R
MATINICUS ROCK   2200   44     200/  8/ 10 1019.7R
ISLE OF SHOALS   2200   48     290/  5/  6 1020.4R
JEFFREYS LEDGE   2206      54                N/A     2/10
$$

.............KEY..............
   WCI - WIND CHILL
   TC  - TEMPERATURE IN CELSIUS
   VSB - VISIBILITY IN MILES
   HX  - HEAT INDEX
   FAIR- INDICATES FEW OR NO CLOUDS BELOW 12,000 FT, WITH NO 
         SIGNIFICANT WEATHER AND/OR OBSTRUCTIONS TO VISIBILITY.